{"data":{"norad_id":48125,"epoch":"2026-05-25T01:31:11.272224Z","epoch_age_seconds":62842,"freshness":"FRESH","line1":"1 48125U 21027AK  26145.06332491  .00001401  00000+0  56922-4 0  9991","line2":"2 48125  53.1609 170.3802 0001717  45.7969 314.3173 15.31703258284206","mean_motion":15.31703258,"eccentricity":0.0001717,"inclination_deg":53.1609,"raan_deg":170.3802,"arg_perigee_deg":45.7969,"mean_anomaly_deg":314.3173,"bstar":5.6922e-5,"rev_number":28420,"period_min":94.012987990915,"perigee_km":469.55433280185,"apogee_km":471.90623382694,"semimajor_km":6848.8672833144,"source":"CELESTRAK","updated_at":"2026-05-25T13:38:16.646862Z"}}